Location: Proctor
(47.8934°N, 114.3048°W)
Time: 22:17:59
(UTC+00:00)

Tiros 1 despin weight - Pass Details

Date: 04 July 2024
Orbit: 576 x 620 km, 48.2° (Epoch: 19 July)

Event Time Altitude Azimuth Distance (km) Brightness Sun altitude
Rises 17:59:29 0° 272° (W) 2,872 ? 57.7°
Reaches altitude 10° 18:01:46 10° 273° (W) 1,973 ? 57.9°
Maximum altitude 18:06:19 86° 0° (N) 625 ? 58.5°
Drops below altitude 10° 18:10:55 10° 92° (E) 1,986 ? 59.0°
Sets 18:13:14 0° 93° (E) 2,893 ? 59.3°
